Location: Berkeley
(37.8716°N, 122.2727°W)
Time: 20:39:13
(UTC-07:00)

Envisat - Pass Details

Date: 10 May 2026
Orbit: 761 x 763 km, 98.4° (Epoch: 9 June)

Event Time Altitude Azimuth Distance (km) Brightness Sun altitude
Rises 05:06:39 0° 353° (N) 3,230 6.6 -10.7°
Reaches altitude 10° 05:09:50 10° 332° (NNW) 2,299 5.5 -10.2°
Maximum altitude 05:12:44 16° 297° (WNW) 1,933 4.8 -9.7°
Drops below altitude 10° 05:15:38 10° 261° (W) 2,291 4.9 -9.2°
Enters shadow 05:15:47 10° 260° (W) 2,324 4.9 -9.2°
